Change the Weather History Date:

Saturday, February 22, 2014

  Actual Average (EIDW) Record (EIDW)
Temperature  
Mean Temperature 44 °F -  
Max Temperature 50 °F 47 °F 57 °F (2012)
Min Temperature 39 °F 35 °F 28 °F (2004)
Degree Days  
Heating Degree Days 20    
Moisture  
Dew Point 40 °F    
Average Humidity 82    
Maximum Humidity 89    
Minimum Humidity 66    
Precipitation  
Precipitation 0.00 in - - ()
Sea Level Pressure  
Sea Level Pressure 29.51 in    
Wind  
Wind Speed 19 mph ()    
Max Wind Speed 31 mph    
Max Gust Speed 47 mph    
Visibility 7.7 miles    
Events Rain    
Averages and records for this station are not official NWS values.
T = Trace of Precipitation, MM = Missing Value Source: Averaged Metar Reports

Daily Weather History Graph

Daily Weather History Graph

Search for Another Location

Airport or City:

Trip Planner

Search our weather history database for the weather conditions in past years. The results will help you decide how hot, cold, wet, or windy it might be!

Date:

Astronomy

Feb. 22, 2014 Rise Set
Actual Time 7:29 AM GMT 5:50 PM GMT
Civil Twilight 6:53 AM GMT 6:25 PM GMT
Nautical Twilight 6:13 AM GMT 7:05 PM GMT
Astronomical Twilight 5:33 AM GMT 7:46 PM GMT
Moon 1:29 AM GMT (2/22) 10:28 AM GMT (2/22)
Length of Visible Light 11h 31m
Length of Day
10h 20m
Waning Gibbous, 52% of the Moon is Illuminated
Feb 22
Waning Gibbous
Feb 22
Last Quarter
Mar 1
New
Mar 8
First Quarter
Mar 16
Full

Hourly Weather History & Observations

Time (GMT) Temp. Windchill Dew Point Humidity Pressure Visibility Wind Dir Wind Speed Gust Speed Precip Events Conditions
12:00 AM 41 °F - 38 °F 85% 29.49 in 22 mi SW 20.1 mph - -   Partly Cloudy
12:00 AM 41.0 °F 31.9 °F 37.4 °F 87% 29.47 in 6.2 mi SW 19.6 mph - N/A   Partly Cloudy
1:00 AM 40 °F - 38 °F 88% 29.51 in 22 mi SW 20.1 mph - -   Scattered Clouds
1:00 AM 41.0 °F 31.9 °F 37.4 °F 87% 29.47 in 6.2 mi SW 19.6 mph - N/A   Partly Cloudy
2:00 AM 40 °F - 38 °F 88% 29.52 in 22 mi SW 15.7 mph - -   Scattered Clouds
2:00 AM 41.0 °F 32.8 °F 37.4 °F 87% 29.50 in 6.2 mi SW 16.1 mph - N/A   Partly Cloudy
3:00 AM 40 °F - 38 °F 89% 29.54 in 22 mi SW 17.9 mph - -   Scattered Clouds
3:00 AM 41.0 °F 32.2 °F 37.4 °F 87% 29.50 in 6.2 mi SW 18.4 mph - N/A   Partly Cloudy
4:00 AM 41 °F - 38 °F 85% 29.56 in 22 mi SW 15.7 mph - -   Partly Cloudy
4:00 AM 41.0 °F 32.8 °F 37.4 °F 87% 29.53 in 6.2 mi SW 16.1 mph - N/A   Partly Cloudy
5:00 AM 40 °F - 37 °F 87% 29.58 in 22 mi SW 17.9 mph - -   Scattered Clouds
5:00 AM 41.0 °F 32.5 °F 37.4 °F 87% 29.56 in 6.2 mi SW 17.3 mph - N/A   Partly Cloudy
6:00 AM 40 °F - 38 °F 88% 29.59 in 22 mi SSW 17.9 mph - -   Partly Cloudy
6:00 AM 41.0 °F 32.2 °F 37.4 °F 87% 29.56 in 6.2 mi SSW 18.4 mph - N/A   Scattered Clouds
7:00 AM 40 °F - 37 °F 83% 29.60 in 25 mi SSW 15.7 mph - -   Scattered Clouds
7:00 AM 41.0 °F 32.8 °F 37.4 °F 87% 29.56 in 6.2 mi SSW 16.1 mph - N/A   Partly Cloudy
8:00 AM 40 °F - 37 °F 83% 29.62 in 25 mi SSW 17.9 mph - -   Mostly Cloudy
8:00 AM 41.0 °F 32.2 °F 37.4 °F 87% 29.59 in 6.2 mi SSW 18.4 mph - N/A   Mostly Cloudy
9:00 AM 40 °F - 36 °F 79% 29.62 in 28 mi SSW 15.7 mph - -   Scattered Clouds
9:00 AM 41.0 °F 32.8 °F 35.6 °F 81% 29.59 in 6.2 mi SSW 16.1 mph - N/A   Mostly Cloudy
10:00 AM 44 °F - 36 °F 66% 29.61 in 28 mi SSW 17.9 mph - -   Scattered Clouds
10:00 AM 44.6 °F 36.9 °F 35.6 °F 71% 29.59 in 6.2 mi SSW 18.4 mph - N/A   Mostly Cloudy
11:00 AM 46 °F - 38 °F 66% 29.60 in 28 mi SSW 22.4 mph - -   Scattered Clouds
11:00 AM 46.4 °F 39.2 °F 39.2 °F 76% 29.59 in 6.2 mi SSW 18.4 mph 33.4 mph N/A   Mostly Cloudy
12:00 PM 47 °F - 40 °F 69% 29.60 in 28 mi SSW 22.4 mph - -   Scattered Clouds
12:00 PM 46.4 °F 38.5 °F 39.2 °F 76% 29.56 in 6.2 mi South 21.9 mph 34.5 mph N/A   Mostly Cloudy
1:00 PM 47 °F - 41 °F 73% 29.57 in 28 mi SSW 22.4 mph - - Rain Light Drizzle
1:00 PM 46.4 °F 38.1 °F 41.0 °F 81% 29.56 in 6.2 mi SSW 24.2 mph - N/A   Light Drizzle
2:00 PM 47 °F - 42 °F 79% 29.55 in 28 mi SSW 22.4 mph - - Rain Light Drizzle
2:00 PM 48.2 °F - 42.8 °F 82% 29.53 in 6.2 mi SSW 21.9 mph - N/A   Mostly Cloudy
3:00 PM 48 °F - 43 °F 77% 29.54 in 28 mi SSW 22.4 mph - -   Partly Cloudy
3:00 PM 48.2 °F - 42.8 °F 82% 29.50 in 6.2 mi SSW 24.2 mph - N/A   Mostly Cloudy
4:00 PM 48 °F - 44 °F 79% 29.50 in 22 mi SSW 29.1 mph - -   Mostly Cloudy
4:00 PM 48.2 °F - 42.8 °F 82% 29.47 in 6.2 mi SSW 29.9 mph 43.7 mph N/A   Mostly Cloudy
5:00 PM 48 °F - 44 °F 79% 29.49 in 16 mi SSW 22.4 mph - - Rain Light Drizzle
5:00 PM 48.2 °F - 42.8 °F 82% 29.47 in 6.2 mi SSW 24.2 mph - N/A   Mostly Cloudy
6:00 PM 48 °F - 44 °F 82% 29.47 in 9 mi SSW 26.8 mph - - Rain Light Drizzle
6:00 PM 48.2 °F - 44.6 °F 87% 29.44 in 6.2 mi SSW 27.6 mph 40.3 mph N/A   Light Drizzle
7:00 PM 49 °F - 44 °F 76% 29.45 in 16 mi SSW 26.8 mph - - Rain Light Drizzle
7:00 PM 48.2 °F - 42.8 °F 82% 29.42 in 6.2 mi SSW 26.5 mph 38.0 mph N/A   Scattered Clouds
8:00 PM 49 °F - 44 °F 77% 29.44 in 22 mi SSW 29.1 mph - -   Partly Cloudy
8:00 PM 48.2 °F - 44.6 °F 87% 29.42 in 6.2 mi SSW 28.8 mph 44.9 mph N/A   Mostly Cloudy
9:00 PM 49 °F - 45 °F 82% 29.41 in 16 mi SSW 29.1 mph - -   Partly Cloudy
9:00 PM 50.0 °F - 44.6 °F 82% 29.39 in 6.2 mi SSW 31.1 mph 46.0 mph N/A   Mostly Cloudy
10:00 PM 50 °F - 46 °F 81% 29.40 in 12 mi SSW 29.1 mph - - Rain Light Rain
10:00 PM 50.0 °F - 46.4 °F 87% 29.39 in 6.2 mi SSW 29.9 mph 43.7 mph N/A Rain Light Rain
11:00 PM 50 °F - 47 °F 84% 29.39 in 12 mi SSW 29.1 mph - - Rain Light Rain
11:00 PM 50.0 °F - 46.4 °F 87% 29.36 in 6.2 mi SSW 29.9 mph 47.2 mph N/A Rain Light Rain